Showing default

LEMUR 2 TILLINFINITY, 63356

Orbit data source: Space-Track

LEMUR 2 TILLINFINITY, 63356 is a payload satellite owned by OroraTech (US) in SSO that was launched on Wed, 26 Mar 2025 UTC via an ELECTRON launch vehicle from the Rocket Lab Launch Complex (RLLC). Payload-class satellites include a variety of spacecraft equipped with specific instruments for various scientific and technological missions. These include communications satellites like Starlink; space stations such as the ISS; scientific satellites like the Hubble; Earth observation satellites from companies like Planet Labs, Umbra, and HawkEye 360; GPS; miniature CubeSats for education and research; and military/defense satellites.

Loading next visibility...
Identifier
63356, 2025-061F
Orbit
SSO
Last TLE update
17 hours ago
Origin
Manufacturer
Spire/Glasgow
Mission
Operational Commercial Imaging
Bus & Motor
CUBESAT 6U, Unknown motor
Mass
~15 kg wet, ~15 kg dry
Launch date (UTC)
2025-03-26 (3 months ago)
Launch vehicle
ELECTRON
Launch site
Rocket Lab Launch Complex (RLLC)
Object type
Payload
Rocket body
Debris
Shape & HBR
Box + 2 Pan, 0.4 m
Radar Cross Section
0.065 m², Medium (>0.1 m² and < 1m²)

Expand to show TLE details & history

TLE from 17 hours ago
0 LEMUR 2 TILLINFINITY
1 63356U 25061F   25187.36976618  .00002795  00000-0  17140-3 0  9995
2 63356  97.5188 162.2099 0019803   4.6462 355.4948 15.10813057 15358
Epoch: 2025-07-06T08:52Z
TLE epoch observation values (Epoch: 2025-07-06T08:52:27.797Z)
Latitude
-0.00005°
Longitude
104.49965°
Altitude
523.146 km
Speed
7.609 km/s
True Right ascension
10h 48m 50s
True Declination
0° 00' 00"
Sunlit
Object was in daylight at epoch
Visualization orbit readout
Latitude
11.3048°
Longitude
-73.31556°
Altitude
549.317 km
Speed
7.581 km/s
Apparent Right ascension
00h 01m 33s
Apparent Declination
-13° 49' 29"
Sunlit
Object is in full shadow
Visualization observer readout
Local Sidereal Time
13:31:25
Azimuth
43.394° NE
Elevation
-57.305°
Doppler factor
1
Orbital elements
Apogee altitude
544.384 km
Perigee altitude
517.02 km
Semi-major axis
6,908.839 km
Eccentricity
0.00198
Inclination
97.5188°
RAAN
162.2099°
Arg. of periapsis
4.6462°
True anomaly
Unknown
Mean anomaly
355.4948°
Eccentric anomaly
Unknown
Mean motion
3.77951 °/min
Orbital period
95.25 mins
BSTAR
0.0001714
Loading maneuver chart data...
Loading SW <> Apogee altitude chart data...
Loading historical data...
Loading historical data...
Loading historical data...
Loading historical data...
Loading historical data...
Loading historical data...
Loading historical data...

LEMUR 2 TILLINFINITY Visibility forecast

Observer location: undefined°, undefined°

Span
Click to sort rows by Start time (UTC) header in descending order
Start Az.
Max El. time (UTC)
Max El. Az.
Max El.
End time (UTC)
End Az.
6 mins2025-07-07 10:52:47.672Z29.264° NE2025-07-07 10:55:47.672Z112.334° ESE36.342°2025-07-07 10:58:47.672Z172.406° S
4 mins2025-07-07 21:35:47.672Z103.027° ESE2025-07-07 21:37:47.672Z58.65° ENE20.292°2025-07-07 21:39:47.672Z23.212° NE
4 mins2025-07-07 23:09:47.672Z225.227° WSW2025-07-07 23:11:47.672Z268.122° W21.154°2025-07-07 23:13:47.672Z308.047° NW
|